DW5492 Weather Reports


time (UTC)temp
F
wind
direction
speed
knots
gust
knots
rain 1hr
in
rain 24hr
in
rain mn
in
humidity
%
barometer
mb
20260505160903 89 172 6.1 12.2 0.00 0.00 0.00 68 1012.9
20260505152724 88 158 5.2 11.3 0.00 0.00 0.00 68 1013.0
20260505151803 88 154 5.2 12.2 0.00 0.00 0.00 68 1013.0
20260505150924 88 126 6.1 11.3 0.00 0.00 0.00 69 1013.0
20260504212704 86 130 4.3 9.6 0.00 0.00 0.00 73 1010.2
20260504211826 86 143 3.5 9.6 0.00 0.00 0.00 73 1010.0
20260504210905 86 150 3.5 7.0 0.00 0.00 0.00 73 1010.1
20260504210005 86 143 3.5 9.6 0.00 0.00 0.00 73 1010.2
20260504205404 86 174 3.5 7.0 0.00 0.00 0.00 73 1009.9
20260504204504 86 166 3.5 8.7 0.00 0.00 0.00 73 1010.0
20260504203605 86 194 3.5 8.7 0.00 0.00 0.00 73 1009.9
20260504202725 86 166 5.2 8.7 0.00 0.00 0.00 73 1009.9
20260504201804 86 145 4.3 11.3 0.00 0.00 0.00 73 1009.8
20260504200926 86 176 4.3 13.0 0.00 0.00 0.00 73 1009.8
20260504200005 86 167 5.2 8.7 0.00 0.00 0.00 73 1010.1
20260504195426 86 179 5.2 9.6 0.00 0.00 0.00 73 1010.1
20260504194505 86 180 5.2 14.8 0.00 0.00 0.00 73 1010.2
20260504193604 86 187 5.2 11.3 0.00 0.00 0.00 73 1010.3
20260504192705 86 188 5.2 11.3 0.00 0.00 0.00 73 1010.1
20260504191805 86 205 6.1 12.2 0.00 0.00 0.00 73 1010.1
20260504190904 86 148 5.2 7.8 0.00 0.00 0.00 73 1010.3
20260504190005 86 158 3.5 7.0 0.00 0.00 0.00 73 1010.2
20260504185405 86 172 5.2 7.8 0.00 0.00 0.00 73 1010.4
20260504184504 86 178 5.2 11.3 0.00 0.00 0.00 73 1010.7
20260504183626 86 193 4.3 8.7 0.00 0.00 0.00 73 1010.5
20260504182704 86 182 5.2 7.8 0.00 0.00 0.00 73 1010.6
20260504181805 86 181 4.3 7.8 0.00 0.00 0.00 73 1010.7
20260504180905 86 197 5.2 8.7 0.00 0.00 0.00 73 1010.7
20260504180005 86 155 3.5 7.0 0.00 0.00 0.00 73 1010.8
20260504175405 86 140 4.3 8.7 0.00 0.00 0.00 73 1010.7
20260504174505 86 171 4.3 7.8 0.00 0.00 0.00 73 1011.0
20260504173605 86 208 5.2 8.7 0.00 0.00 0.00 73 1011.0
20260504172705 86 177 4.3 7.8 0.00 0.00 0.00 73 1011.2
20260504171805 86 140 4.3 7.8 0.00 0.00 0.00 73 1011.4
20260504170905 86 165 4.3 7.8 0.00 0.00 0.00 73 1011.3